Location: Newark
(27.2452°N, 107.0032°W)
Time: 14:02:47
(UTC+00:00)

Hubble Space Telescope - Pass Details

Date: 16 December 2019
Orbit: 536 x 540 km, 28.5° (Epoch: 20 January)

Event Time Altitude Azimuth Distance (km) Brightness Sun altitude
Exits shadow 12:51:17 18° 265° (W) 1,355 2.3 -13.0°
Maximum altitude 12:54:18 83° 353° (N) 543 0.7 -12.4°
Drops below altitude 10° 12:58:27 10° 81° (E) 1,786 4.4 -11.5°
Sets 13:00:43 0° 82° (E) 2,677 5.5 -11.0°
